Miscellaneous Local Product
Issued by NWS Hastings, NE

Home | Current Version | Previous Version | Text Only | Print | Product List | Glossary Off
Versions: 1 2 3 4 5 6 7 8 9 10 11 12 13 14 15 16 17 18 19 20 21 22 23 24 25 26 27 28 29 30 31 32 33 34 35 36 37 38 39 40 41 42 43 44 45 46 47 48 49 50

000
AXUS43 KGID 222302
MISGRI

GID CWA HOURLY WEATHER ROUNDUP
NATIONAL WEATHER SERVICE HASTINGS NE
600 PM CDT WED MAR 22 2017

NOTE: "FAIR" INDICATES FEW OR NO CLOUDS BELOW 12,000 FEET WITH NO
SIGNIFICANT WEATHER AND/OR OBSTRUCTIONS TO VISIBILITY.

...SOUTH CENTRAL NEBRASKA...

CITY           SKY/WX    TMP DP  RH WIND       PRES   REMARKS
GRAND ISLAND   CLOUDY    54  20  26 SE20G26   30.10F
HASTINGS       CLOUDY    52  23  32 S15G23    30.11F
KEARNEY        CLOUDY    50  25  37 S18G25    30.09S
ORD            CLOUDY    54  22  28 S17G25    30.04F
YORK           CLOUDY    55  16  21 SE21      30.11F
AURORA         CLOUDY    55  16  22 SE17G25   30.10F
LEXINGTON      CLOUDY    51  28  41 SE15      30.04F
HOLDREGE       CLOUDY    50  25  36 SE17G24   30.07S
HEBRON         CLOUDY    55  19  23 S15G22    30.13F

...NEBRASKA PANHANDLE...

CITY           SKY/WX    TMP DP  RH WIND       PRES   REMARKS
CHADRON        MOSUNNY   69  36  29 S17       29.78F
ALLIANCE       CLOUDY    64  36  35 S23G30    29.85R
SCOTTSBLUFF    CLOUDY    70  34  26 SE14      29.81F
SIDNEY         CLOUDY    64  35  34 S24G31    29.87F

...WESTERN AND NORTH CENTRAL NEBRASKA...

CITY           SKY/WX    TMP DP  RH WIND       PRES   REMARKS
VALENTINE      SUNNY     54  31  41 S21G33    29.92F
AINSWORTH      CLOUDY    50  31  47 S23G31    29.97F
ONEILL         CLOUDY    51  22  32 SE26G32   30.04F
BROKEN BOW     CLOUDY    52  27  38 S22G30    30.03F
IMPERIAL       SUNNY     57  36  45 S20       29.94F
NORTH PLATTE   PTSUNNY   55  31  39 SE16G26   29.99F
MCCOOK         CLOUDY    53  33  46 S14       30.01F

...EASTERN NEBRASKA...

CITY           SKY/WX    TMP DP  RH WIND       PRES   REMARKS
NORFOLK        PTSUNNY   50  21  32 SE20G28   30.11F
SO SIOUX CITY  CLOUDY    45  29  53 SE20G31   30.19F
TEKAMAH        CLOUDY    50  23  34 SE20      30.20F
COLUMBUS       PTSUNNY   52  19  28 SE20      30.14F
ALBION         CLOUDY    54  16  22 SE14G21   30.09F
OMAHA EPPLEY   CLOUDY    50  23  34 SE21      30.21F
OFFUTT AFB     CLOUDY    49  25  38 E15G24    30.21F
MILLARD        CLOUDY    51  28  39 SE18      30.20F
LINCOLN        CLOUDY    54  21  27 SE15G25   30.17F
NEBRASKA CITY  MOSUNNY   51  18  27 E14G20    30.20F
BEATRICE       CLOUDY    58  23  26 SE15G21   30.14F
FALLS CITY     MOSUNNY   54  26  34 E18       30.19F

...NORTHERN KANSAS...

CITY           SKY/WX    TMP DP  RH WIND       PRES   REMARKS
GOODLAND       CLOUDY    61  39  44 S26G36    29.93F
HILL CITY      CLOUDY    52  33  48 S15       30.05F
NORTON         CLOUDY    50  27  40 SE15      30.05S
PHILLIPSBURG   CLOUDY    54  27  35 SE10G16   30.07F
HAYS             N/A     55  34  45 SE17      30.05F
RUSSELL        CLOUDY    55  33  43 SE15      30.06F
CONCORDIA      CLOUDY    55  25  31 SE21      30.11F
SALINA         CLOUDY    58  31  35 SE16      30.13F
TOPEKA         CLOUDY    56  29  35 E16       30.18S



USA.gov is the U.S. government's official web portal to all federal, state and local government web resources and services.